sat.trackr.live / text

‹ back to catalog

STARLINK-6042

NORAD 56808 · 2023-078AT

PAYLOAD ACTIVE UNKNOWN

§ Identity

Operator
Country
US
Launch date
2023-05-31
Launch site
AFWTR
Launch vehicle
Mass (kg)
RCS (m²)

Purposes: comms

External: N2YO · Heavens-Above · Gunter

§ Orbital elements

Epoch: 2026-05-25T02:35:31.333920Z

Period
96.11 min
Inclination
69.9998°
Eccentricity
0.0002862
Mean motion
14.98330579 rev/d
Perigee alt
570.1 km
Apogee alt
574.0 km
Semi-major
6,950.2 km
B*
2.4423e-5
RAAN
81.8621°
Arg perigee
265.4187°
Mean anomaly
94.6645°
Rev number
16,586

§ Raw data

STARLINK-60421 56808U 23078AT  26145.10800155  .00000198  00000+0  24423-4 0  99912 56808  69.9998  81.8621 0002862 265.4187  94.6645 14.98330579165865

JSON: /api/v1/satellites/56808 · /tle

For live sub-satellite position, see the globe view (requires WebGL).

§ Visibility from observer

Set your observer location to see the next 7 days of passes ≥ 10°. The values pass through the URL so the page stays shareable.

No JS? Fill the form by hand. The geolocation button needs JavaScript.